Chester, SC

10:04 AM EDT on October 23, 2017 (GMT -0400)
Chester

Weather History for KDCM - February, 2012

Change the Weather History Date:

Thursday, February 16, 2012

  Actual Average (KUZA) Record (KUZA)
Temperature  
Mean Temperature 48 °F -  
Max Temperature 53 °F 57 °F 78 °F (1976)
Min Temperature 42 °F 36 °F 10 °F (1991)
Degree Days  
Heating Degree Days 18    
Moisture  
Dew Point 47 °F    
Average Humidity 92    
Maximum Humidity 100    
Minimum Humidity 58    
Precipitation  
Precipitation 0.05 in - - ()
Sea Level Pressure  
Sea Level Pressure 30.13 in    
Wind  
Wind Speed 3 mph (SE)    
Max Wind Speed 13 mph    
Max Gust Speed -    
Visibility 7 miles    
Events Rain    
Averages and records for this station are not official NWS values.
T = Trace of Precipitation, MM = Missing Value Source: NWS Daily Summary

Daily Weather History Graph

Daily Weather History Graph

Search for Another Location

Airport or City:

Trip Planner

Search our weather history database for the weather conditions in past years. The results will help you decide how hot, cold, wet, or windy it might be!

Date:

Astronomy

Feb. 16, 2012 Rise Set
Actual Time 7:09 AM EST 6:08 PM EST
Civil Twilight 6:44 AM EST 6:34 PM EST
Nautical Twilight 6:14 AM EST 7:03 PM EST
Astronomical Twilight 5:45 AM EST 7:33 PM EST
Moon 2:56 AM EST (2/16) 1:06 PM EST (2/16)
Length of Visible Light 11h 49m
Length of Day
10h 58m
Waning Crescent, 28% of the Moon is Illuminated
Feb 16
Waning Crescent
Feb 21
New
Feb 29
First Quarter
Mar 8
Full
Mar 14
Last Quarter

Hourly Weather History & Observations

Time (EST) Temp. Windchill Dew Point Humidity Pressure Visibility Wind Dir Wind Speed Gust Speed Precip Events Conditions
12:15 AM 46.4 °F 44.3 °F 35.6 °F 66% 30.24 in 10.0 mi SE 4.6 mph - N/A   Clear
12:35 AM 50.0 °F - 35.6 °F 58% 30.24 in 10.0 mi SSE 6.9 mph - N/A   Clear
12:55 AM 50.0 °F - 35.6 °F 58% 30.24 in 10.0 mi SSE 8.1 mph - N/A   Clear
1:35 AM 48.2 °F - 37.4 °F 66% 30.22 in 10.0 mi SSE 3.5 mph - N/A   Clear
1:55 AM 46.4 °F - 37.4 °F 71% 30.22 in 10.0 mi Calm Calm - N/A   Clear
2:15 AM 46.4 °F - 39.2 °F 76% 30.22 in 10.0 mi Calm Calm - N/A   Clear
2:35 AM 46.4 °F - 41.0 °F 81% 30.23 in 10.0 mi Calm Calm - N/A   Clear
2:55 AM 44.6 °F - 39.2 °F 81% 30.21 in 10.0 mi Calm Calm - N/A   Clear
3:15 AM 44.6 °F - 39.2 °F 81% 30.22 in 10.0 mi Calm Calm - N/A   Clear
3:35 AM 44.6 °F - 41.0 °F 87% 30.22 in 10.0 mi Calm Calm - N/A   Clear
3:55 AM 44.6 °F - 41.0 °F 87% 30.22 in 10.0 mi Calm Calm - N/A   Clear
4:15 AM 44.6 °F - 39.2 °F 81% 30.22 in 10.0 mi Calm Calm - N/A   Clear
4:35 AM 42.8 °F - 41.0 °F 93% 30.22 in 10.0 mi Calm Calm - N/A   Scattered Clouds
4:55 AM 44.6 °F - 39.2 °F 81% 30.24 in 10.0 mi Calm Calm - N/A   Overcast
5:15 AM 42.8 °F - 39.2 °F 87% 30.23 in 10.0 mi Calm Calm - N/A   Mostly Cloudy
5:35 AM 42.8 °F - 39.2 °F 87% 30.22 in 10.0 mi Calm Calm - N/A   Mostly Cloudy
5:55 AM 44.6 °F 43.1 °F 41.0 °F 87% 30.21 in 10.0 mi NE 3.5 mph - N/A   Overcast
6:15 AM 44.6 °F - 41.0 °F 87% 30.20 in 10.0 mi Calm Calm - N/A   Mostly Cloudy
6:35 AM 44.6 °F - 41.0 °F 87% 30.22 in 10.0 mi Calm Calm - N/A   Mostly Cloudy
6:55 AM 44.6 °F - 41.0 °F 87% 30.22 in 10.0 mi Calm Calm - N/A   Overcast
7:15 AM 44.6 °F - 41.0 °F 87% 30.21 in 10.0 mi Calm Calm - N/A   Overcast
7:35 AM 44.6 °F - 41.0 °F 87% 30.23 in 10.0 mi Calm Calm - N/A   Overcast
7:55 AM 44.6 °F - 42.8 °F 93% 30.21 in 10.0 mi Calm Calm - N/A   Overcast
8:15 AM 44.6 °F 43.1 °F 41.0 °F 87% 30.20 in 10.0 mi ENE 3.5 mph - N/A Rain Light Rain
8:35 AM 44.6 °F - 42.8 °F 93% 30.19 in 10.0 mi Calm Calm - N/A   Overcast
8:55 AM 46.4 °F 45.2 °F 42.8 °F 87% 30.19 in 10.0 mi SE 3.5 mph - N/A Rain Light Rain
9:15 AM 48.2 °F - 46.4 °F 93% 30.17 in 10.0 mi ESE 9.2 mph - N/A Rain Light Rain
9:35 AM 50.0 °F - 46.4 °F 87% 30.16 in 10.0 mi SE 9.2 mph - N/A   Overcast
9:55 AM 50.0 °F - 50.0 °F 100% 30.14 in 10.0 mi SE 9.2 mph - N/A Rain Light Rain
10:15 AM 50.0 °F - 50.0 °F 100% 30.14 in 10.0 mi SSE 12.7 mph - N/A   Overcast
10:35 AM 50.0 °F - 50.0 °F 100% 30.14 in 7.0 mi SE 5.8 mph - N/A   Overcast
10:55 AM 50.0 °F - 50.0 °F 100% 30.14 in 7.0 mi SE 6.9 mph - N/A   Overcast
11:15 AM 50.0 °F - 50.0 °F 100% 30.14 in 7.0 mi Calm Calm - N/A   Overcast
11:35 AM 51.8 °F - 50.0 °F 94% 30.14 in 7.0 mi SSE 3.5 mph - N/A   Overcast
11:55 AM 51.8 °F - 51.8 °F 100% 30.12 in 7.0 mi SE 4.6 mph - N/A   Overcast
12:15 PM 51.8 °F - 51.8 °F 100% 30.12 in 5.0 mi Calm Calm - N/A Rain Light Rain
12:35 PM 53.6 °F - 51.8 °F 94% 30.10 in 5.0 mi SE 3.5 mph - N/A   Overcast
1:15 PM 53.6 °F - 53.6 °F 100% 30.07 in 5.0 mi Calm Calm - N/A   Overcast
1:35 PM 53.6 °F - 53.6 °F 100% 30.05 in 1.8 mi Calm Calm - N/A   Overcast
1:55 PM 53.6 °F - 53.6 °F 100% 30.05 in 1.8 mi Calm Calm - N/A Rain Light Rain
2:15 PM 53.6 °F - 53.6 °F 100% 30.04 in 2.0 mi Calm Calm - 0.02 in Rain Rain
2:35 PM 53.6 °F - 53.6 °F 100% 30.04 in 4.0 mi Calm Calm - 0.03 in   Light Drizzle
2:55 PM 53.6 °F - 53.6 °F 100% 30.03 in 4.0 mi Calm Calm - 0.03 in Rain Light Rain
3:35 PM 53.6 °F - 53.6 °F 100% 30.03 in 2.5 mi NW 4.6 mph - 0.02 in   Light Drizzle
3:55 PM 51.8 °F - 51.8 °F 100% 30.03 in 2.5 mi NW 4.6 mph - 0.02 in   Overcast
4:15 PM 51.8 °F - 51.8 °F 100% 30.03 in 5.0 mi Calm Calm - N/A   Overcast
4:35 PM 51.8 °F - 51.8 °F 100% 30.03 in 5.0 mi NW 4.6 mph - N/A   Overcast
4:55 PM 51.8 °F - 51.8 °F 100% 30.04 in 5.0 mi NNW 4.6 mph - N/A   Overcast
5:15 PM 51.8 °F - 51.8 °F 100% 30.03 in 7.0 mi NNW 4.6 mph - N/A   Overcast
5:35 PM 51.8 °F - 51.8 °F 100% 30.03 in 7.0 mi Calm Calm - N/A   Overcast
5:55 PM 51.8 °F - 51.8 °F 100% 30.03 in 7.0 mi Calm Calm - N/A   Overcast
6:15 PM 51.8 °F - 51.8 °F 100% 30.03 in 5.0 mi Calm Calm - N/A   Overcast
6:35 PM 51.8 °F - 51.8 °F 100% 30.04 in 2.5 mi Calm Calm - N/A   Overcast
7:15 PM 51.8 °F - 51.8 °F 100% 30.06 in 7.0 mi WNW 3.5 mph - N/A   Overcast
7:35 PM 51.8 °F - 51.8 °F 100% 30.07 in 7.0 mi Calm Calm - N/A   Overcast
7:55 PM 51.8 °F - 51.8 °F 100% 30.07 in 7.0 mi WSW 3.5 mph - N/A   Overcast
8:15 PM 51.8 °F - 51.8 °F 100% 30.07 in 7.0 mi Calm Calm - N/A   Overcast
8:35 PM 51.8 °F - 51.8 °F 100% 30.07 in 7.0 mi Calm Calm - N/A   Overcast
8:55 PM 51.8 °F - 51.8 °F 100% 30.07 in 5.0 mi Calm Calm - N/A   Overcast
9:15 PM 51.8 °F - 51.8 °F 100% 30.07 in 4.0 mi Calm Calm - N/A   Overcast
9:35 PM 51.8 °F - 51.8 °F 100% 30.07 in 2.0 mi Calm Calm - N/A   Overcast
9:55 PM 50.0 °F - 50.0 °F 100% 30.07 in 3.0 mi Calm Calm - N/A   Overcast
10:15 PM 50.0 °F - 50.0 °F 100% 30.07 in 2.0 mi Calm Calm - N/A   Overcast
10:35 PM 50.0 °F - 50.0 °F 100% 30.07 in 3.0 mi Calm Calm - N/A   Overcast
10:55 PM 50.0 °F - 50.0 °F 100% 30.06 in 3.0 mi Calm Calm - N/A   Overcast
11:15 PM 50.0 °F - 50.0 °F 100% 30.06 in 5.0 mi NW 3.5 mph - N/A   Scattered Clouds
11:35 PM 46.4 °F - 46.4 °F 100% 30.05 in 0.8 mi Calm Calm - N/A   Scattered Clouds
11:55 PM 46.4 °F - 46.4 °F 100% 30.06 in 0.8 mi Calm Calm - N/A   Mostly Cloudy